This demonstration page uses our WeatherBlox Daily Observations layout. Learn more.

Left ArrowRight Arrow

41.55636, -103.73856

Hourly Observations for October 30, 2018

Temp ( °F °C ) Dew Point ( °F °C ) Humidity (%) Winds ( mph kmh ) Pressure ( in mb ) Visibility ( mi km ) Precip ( " mm )
1:58 am 01:58 Partly Cloudy 36 2.1 30 -0.9 81 81 NNW 14 22 29.94 1014 10 16 N/A
2:58 am 02:58 Mostly Cloudy 37 2.5 30 -1.1 77 77 NNW 15 24 29.94 1014 10 16 N/A
3:58 am 03:58 Mostly Cloudy 37 2.9 28 -2.2 69 69 NNW 14 22 29.94 1014 10 16 N/A
4:58 am 04:58 Mostly Cloudy 38 3.3 27 -2.9 64 64 NNW 12 19 29.98 1015 10 16 N/A
5:58 am 05:58 Mostly Cloudy 37 2.8 26 -3.3 65 65 N 12 19 30.00 1016 10 16 N/A
6:58 am 06:58 Partly Cloudy 35 1.6 26 -3.2 71 71 N 9 15 30.04 1017 10 16 N/A
7:58 am 07:58 Mostly Cloudy 34 1 27 -3 75 75 N 8 13 30.10 1019 10 16 N/A
8:58 am 08:58 Partly Cloudy 37 2.9 27 -2.9 66 66 NNW 7 11 30.13 1020 10 16 N/A
9:58 am 09:58 Sunny 41 4.8 25 -3.9 54 54 N 9 15 30.14 1021 10 16 N/A
10:58 am 10:58 Sunny 44 6.5 24 -4.4 46 46 NNE 8 13 30.12 1020 10 16 N/A
11:58 am 11:58 Sunny 45 7.3 22 -5.7 39 39 ENE 9 15 30.14 1021 10 16 N/A
12:58 pm 12:58 Mostly Sunny 46 7.6 21 -6.3 37 37 E 7 11 30.12 1020 10 16 N/A
1:58 pm 13:58 Mostly Sunny 45 7.2 20 -6.7 37 37 N N/A 30.10 1019 10 16 N/A
2:58 pm 14:58 Mostly Cloudy 45 7.3 22 -5.3 41 41 NNE 7 11 30.10 1019 10 16 N/A
3:58 pm 15:58 Mostly Sunny 44 6.9 22 -5.7 41 41 N N/A 30.10 1019 10 16 N/A
4:58 pm 16:58 Mostly Cloudy 44 6.6 23 -5.1 43 43 WNW 6 9 30.11 1020 10 16 N/A
5:58 pm 17:58 Partly Cloudy 41 4.9 24 -4.5 51 51 WNW 6 9 30.14 1021 10 16 N/A
6:58 pm 18:58 Mostly Cloudy 39 4 25 -3.9 57 57 WNW 7 11 30.16 1021 10 16 N/A
7:58 pm 19:58 Cloudy 39 4.1 26 -3.6 58 58 NW 9 15 30.18 1022 10 16 N/A
8:58 pm 20:58 Cloudy 37 3 31 -0.8 76 76 N 13 20 30.19 1022 10 16 N/A
9:58 pm 21:58 Mostly Cloudy 36 2.2 28 -2 74 74 N 10 17 30.20 1023 10 16 N/A
10:58 pm 22:58 Mostly Cloudy 36 2.2 30 -0.9 80 80 NNW 10 17 30.19 1022 10 16 N/A
11:58 pm 23:58 Mostly Cloudy 35 1.9 30 -1.1 81 81 NNW 10 17 30.17 1022 10 16 N/A

Powered by AerisWeather